STARLINK-32765 (62747 NORAD) Tracking and Keplerian Element Data

This shows tracking and keplerian element data for the satellite.

Feedback or suggestion? Click here.




ElementValue
Catalog62747
NameSTARLINK-32765
Epoch Orbit5108
Epoch Day354.09584407
Epoch Year2025
RAAN243.9744
Inclination43.0017
Eccentricity0.000171
Argument of Perigee257.8978
Mean Anonmoly102.1682
Mean Motion15.27582639
Decay Rate0.00012062
L11 62747U 25014N 25354.09584407 .00012062 00000+0 44709-3 0 9991
L22 62747 43.0017 243.9744 0001710 257.8978 102.1682 15.27582639 51083



Live tracking and technical data element details for STARLINK-32765 (NORAD 62747). STARLINK-32765 can be tracked NOW for your location showing map with azimuth and elevation plus other details from your city location.







IsCatalogInMostPopularTable: catalog: 62747, numindb: 236
Update: records affected: 1



GetName: 62747 STARLINK-32765

Hit Count: updated at: Mon, 18 May 2026 09:35:51 GMT